Weather History for Tampico, Mexico

Change the Weather History Date:

Saturday, July 6, 2013

  Actual Average Record
Temperature  
Mean Temperature 82 °F -  
Max Temperature 87 °F 89 °F 95 °F (1998)
Min Temperature 77 °F 75 °F 72 °F (2012)
Cooling Degree Days 17    
Growing Degree Days 32 (Base 50)    
Moisture  
Dew Point 75 °F    
Average Humidity 82    
Maximum Humidity 93    
Minimum Humidity 62    
Precipitation  
Precipitation 0.20 in - - ()
Sea Level Pressure  
Sea Level Pressure 29.84 in    
Wind  
Wind Speed 4 mph ()    
Max Wind Speed 12 mph    
Max Gust Speed -    
Visibility 6.3 miles    
Events Rain    
Averages and records for this station are not official NWS values.
T = Trace of Precipitation, MM = Missing Value Source: Averaged Metar Reports

Daily Weather History Graph

Daily Weather History Graph

Search for Another Location

Airport:

Trip Planner

Search our weather history database for the weather conditions in past years. The results will help you decide how hot, cold, wet, or windy it might be!

Date:

Astronomy

Jul. 06, 2013 Rise Set
Actual Time 6:52 AM CDT 8:19 PM CDT
Civil Twilight 6:28 AM CDT 8:44 PM CDT
Nautical Twilight 5:58 AM CDT 9:14 PM CDT
Astronomical Twilight 5:27 AM CDT 9:44 PM CDT
Moon 5:34 AM CDT (7/6) 7:08 PM CDT (7/6)
Length of Visible Light 14h 16m
Length of Day
13h 26m
Waning Crescent, 2% of the Moon is Illuminated
Jul 6
Waning Crescent
Jul 8
New
Jul 15
First Quarter
Jul 22
Full
Jul 29
Last Quarter

Hourly Weather History & Observations

Time (CDT) Temp. Heat Index Dew Point Humidity Pressure Visibility Wind Dir Wind Speed Gust Speed Precip Events Conditions
12:40 AM 81 °F - 79 °F 90% 29.93 in 6 mi SSE 2.2 mph - - Rain Light Drizzle
4:00 AM 81 °F - 79 °F 90%  in 6 mi South 4.5 mph - -  
5:27 AM 80.6 °F 86.2 °F 75.2 °F 84% 29.82 in 5.0 mi West 6.9 mph - N/A   Partly Cloudy
5:47 AM 80.6 °F 85.4 °F 73.4 °F 79% 29.82 in 7.0 mi WNW 5.8 mph - N/A   Partly Cloudy
6:40 AM 78 °F - 75 °F 88% 29.86 in 6 mi NNW 2.2 mph - -   Mostly Cloudy
6:42 AM 78.8 °F - 73.4 °F 83% 29.80 in 7.0 mi Calm Calm - N/A   Mostly Cloudy
7:45 AM 78.8 °F - 73.4 °F 83% 29.83 in 7.0 mi North 5.8 mph - N/A   Mostly Cloudy
8:43 AM 80.6 °F 85.4 °F 73.4 °F 79% 29.84 in 5.0 mi Calm Calm - N/A   Mostly Cloudy
9:40 AM 85 °F - 74 °F 63% 29.89 in 12 mi WNW 2.2 mph - -   Scattered Clouds
9:40 AM 84.2 °F 90.9 °F 73.4 °F 70% 29.86 in 5.0 mi Calm Calm - N/A   Mostly Cloudy
10:55 AM 86.0 °F 91.8 °F 71.6 °F 62% 29.86 in 5.0 mi East 4.6 mph - N/A   Mostly Cloudy
11:52 AM 86.0 °F 93.4 °F 73.4 °F 66% 29.86 in 4.0 mi East 9.2 mph - N/A   Mostly Cloudy
12:45 PM 82 °F - 78 °F 85% 29.90 in 12 mi ESE 4.5 mph - - Rain Light Rain
12:47 PM 80.6 °F 85.4 °F 73.4 °F 79% 29.83 in 4.0 mi NNW 11.5 mph - N/A   Mostly Cloudy
1:46 PM 78.8 °F - 75.2 °F 89% 29.85 in 5.0 mi WNW 4.6 mph - N/A   Overcast
2:41 PM 80.6 °F 86.2 °F 75.2 °F 84% 29.82 in 5.0 mi ENE 6.9 mph - N/A   Mostly Cloudy
3:45 PM 82 °F - 80 °F 93% 29.86 in 12 mi ENE 4.5 mph - - Rain Light Rain
3:45 PM 80.6 °F 85.4 °F 73.4 °F 79% 29.83 in 5.0 mi ENE 8.1 mph - N/A   Mostly Cloudy
4:41 PM 78.8 °F - 75.2 °F 89% 29.82 in 4.0 mi ENE 4.6 mph - N/A   Mostly Cloudy
5:42 PM 78.8 °F - 75.2 °F 89% 29.81 in 5.0 mi ENE 5.8 mph - N/A   Mostly Cloudy
6:45 PM 82 °F - 77 °F 81% 29.84 in 14 mi East 4.5 mph - -   Partly Cloudy
6:52 PM 80.6 °F 86.2 °F 75.2 °F 84% 29.75 in 5.0 mi East 8.1 mph - N/A   Mostly Cloudy
7:48 PM 80.6 °F 86.2 °F 75.2 °F 84% 29.83 in 7.0 mi East 8.1 mph - N/A   Mostly Cloudy
8:41 PM 80.6 °F 85.4 °F 73.4 °F 79% 29.84 in 5.0 mi Calm Calm - N/A   Mostly Cloudy
9:53 PM 80.6 °F 86.2 °F 75.2 °F 84% 29.86 in 2.0 mi ESE 6.9 mph - N/A Rain Rain
10:44 PM 78.8 °F - 75.2 °F 89% 29.87 in 4.0 mi SE 9.2 mph - N/A   Mostly Cloudy